STARLINK-1781, 46685

Orbit data source: Space-Track

STARLINK-1781, 46685 is a payload satellite owned by SpaceX/Seattle (US) in LEO that was launched on Sun, 18 Oct 2020 UTC via an FALCON 9 launch vehicle from the Air Force Eastern Test Range (AFETR). Payload-class satellites include a variety of spacecraft equipped with specific instruments for various scientific and technological missions. These include communications satellites like Starlink; space stations such as the ISS; scientific satellites like the Hubble; Earth observation satellites from companies like Planet Labs, Umbra, and HawkEye 360; GPS; miniature CubeSats for education and research; and military/defense satellites.

Loading next visibility...
Identifier
46685, 2020-073R
Orbit
LEO
Country
Flag of USUS
Related business
Manufacturer
SpaceX/Seattle
Mission
Partially operational Commercial Communications
Bus & Motor
STARLINK, Unknown motor
Mass
260 kg wet, ~248 kg dry
Launch date (UTC)
2020-10-18 (5 years ago)
Launch vehicle
FALCON 9
Launch site
Air Force Eastern Test Range (AFETR)
Object type
Payload
Rocket body
Debris
Shape & HBR
Box + 1 Pan, 10.1 m
Radar Cross Section
13.562 m², Large (>1 m²)

Expand to show TLE details & history
Last TLE update: 10 hours ago

TLE from 10 hours ago
0 STARLINK-1781
1 46685U 20073R   26106.95648150  .00085642  00000-0  88489-3 0  9999
2 46685  53.0478  57.0039 0006887  86.9267 273.2535 15.64033739303070
Epoch: 2026-04-16T22:57Z
TLE epoch observation values (Epoch: 2026-04-16T22:57:20.001Z)
Latitude
-0.00002°
Longitude
-132.42604°
Altitude
376.659 km
Speed
7.685 km/s
True Right ascension
03h 48m 00s
True Declination
0° 00' 00"
Sunlit
Object was in daylight at epoch
Visualization orbit readout
Latitude
Unknown
Longitude
Unknown
Altitude
Unknown
Speed
Unknown
Apparent Right ascension
Unknown
Apparent Declination
Unknown
Sunlit
N/A
Visualization observer readout
Local Sidereal Time
15:55:06
Azimuth
Unknown
Elevation
Unknown
Doppler factor
Unknown
Orbital elements
Apogee altitude
380.949 km
Perigee altitude
371.646 km
Semi-major axis
6,754.435 km
Eccentricity
0.00069
Inclination
53.0478°
RAAN
57.0039°
Arg. of periapsis
86.9267°
True anomaly
273.1747°
Mean anomaly
273.2535°
Eccentric anomaly
273.2141°
Mean motion
3.90985 °/min
Orbital period
92.08 mins
BSTAR
0.00088489
Loading maneuver chart data...
Computing Atmospheric mass density...

Documentation

Showing up to 5 results
|